Date String (YYYY-MM-DD hh:mm:ss) UTC,Instrument flags,absolute air pressure of the measurement (hPa),sample flow rate (lpm),inlet stack bypass flow (lpm),air temperature of the measurement (°C),ambient temperature measured by the external sensor (°C),aerosol sample conditioner tube jacket temperature (°C),OPC LED temperature (°C),internal box temperature (°C),relative humidity of the measurement (%),span deviation,mass concentration of particles derived from Lorenz-Mie calculation of OPC scattering (μg/m³),mass concentration of particles derived from Lorenz-Mie calculation of OPC scattering (μg/m³),mass concentration of particles derived from Lorenz-Mie calculation of OPC scattering (μg/m³)
DateTimeUTC,F1_M11,P_M11,Q1_M11,Q2_M11,T1_M11,T2_M11,T3_M11,T4_M11,T5_M11,U1_M11,ZSPAN_M11,X0_M11,X2_M11,X1_M11
2023-11-01 11:00:00,SystemResetWarning,0832.9,5.00,000.00,021.7,020.5,000.0,030.2,023.0,12.3,0002.8,0009.96,0006.11,0005.77
2023-11-01 11:01:00,SystemResetWarning,0832.9,5.00,000.00,021.7,020.5,000.0,030.2,023.0,12.1,0003.3,0010.06,0006.11,0005.75
2023-11-01 11:02:00,SystemResetWarning,0832.9,5.00,000.00,021.7,020.5,000.0,030.2,023.0,12.2,0003.2,0009.63,0005.91,0005.59
2023-11-01 11:03:00,SystemResetWarning,0832.9,4.99,000.00,021.7,020.5,000.0,030.2,023.0,12.1,0004.1,0009.32,0005.74,0005.45
2023-11-01 11:04:00,SystemResetWarning,0833.0,4.99,000.00,021.7,020.5,000.0,030.2,023.0,12.1,0003.7,0008.99,0005.70,0005.41
2023-11-01 11:05:00,SystemResetWarning,0833.3,5.00,000.00,021.7,020.5,000.0,030.2,023.0,12.1,0003.4,0009.03,0005.74,0005.45
2023-11-01 11:06:00,SystemResetWarning,0833.2,4.99,000.00,021.7,020.5,000.0,030.1,023.0,12.0,0002.1,0009.01,0005.69,0005.40
2023-11-01 11:07:00,SystemResetWarning,0832.8,5.00,000.00,021.7,020.5,000.0,030.1,023.0,11.8,0001.6,0009.00,0005.64,0005.35
2023-11-01 11:08:00,SystemResetWarning,0832.7,5.00,000.00,021.7,020.5,000.0,030.1,023.0,11.7,0000.0,0009.05,0005.66,0005.37
2023-11-01 11:09:00,SystemResetWarning,0832.8,5.00,000.00,021.7,020.5,000.0,030.1,023.0,11.7,0000.0,0009.01,0005.72,0005.43
2023-11-01 11:10:00,SystemResetWarning,0832.8,5.00,000.00,021.7,020.5,000.0,030.1,023.0,11.8,0000.0,0008.77,0005.72,0005.43
2023-11-01 11:11:00,SystemResetWarning,0832.8,5.00,000.00,021.7,020.5,000.0,030.1,023.0,11.8,0000.0,0008.63,0005.62,0005.31
2023-11-01 11:12:00,SystemResetWarning,0832.8,5.00,000.00,021.6,020.5,000.0,030.1,023.0,11.8,0000.0,0008.33,0005.50,0005.21
2023-11-01 11:13:00,SystemResetWarning,0832.9,5.00,000.00,021.6,020.5,000.0,030.1,023.0,11.8,0000.0,0008.43,0005.63,0005.34
2023-11-01 11:14:00,SystemResetWarning,0832.8,5.00,000.00,021.6,020.5,000.0,030.1,023.0,11.8,0000.0,0008.56,0005.81,0005.50
2023-11-01 11:15:00,SystemResetWarning,0832.8,5.00,000.00,021.6,020.5,000.0,030.1,023.0,11.8,0000.0,0008.55,0005.88,0005.56
2023-11-01 11:16:00,SystemResetWarning,0832.8,5.00,000.00,021.6,020.5,000.0,030.1,023.0,11.8,0000.0,0009.14,0005.89,0005.57
2023-11-01 11:17:00,SystemResetWarning,0832.7,5.00,000.00,021.6,020.5,000.0,030.1,023.0,11.8,0000.0,0009.31,0005.87,0005.56
2023-11-01 11:18:00,SystemResetWarning,0832.8,5.00,000.00,021.6,020.5,000.0,030.1,022.9,11.9,0000.0,0009.40,0005.91,0005.58
2023-11-01 11:19:00,SystemResetWarning,0832.8,5.01,000.00,021.6,020.5,000.0,030.1,022.9,12.0,0000.0,0009.41,0005.91,0005.57
2023-11-01 11:20:00,SystemResetWarning,0832.8,5.00,000.00,021.6,020.5,000.0,030.1,022.9,12.0,0000.0,0009.66,0005.96,0005.61
2023-11-01 11:21:00,SystemResetWarning,0832.9,4.99,000.00,021.6,020.4,000.0,030.1,022.9,12.1,0000.0,0010.21,0006.14,0005.77
2023-11-01 11:22:00,SystemResetWarning,0833.3,4.99,000.00,021.6,020.4,000.0,030.1,022.9,12.1,0000.0,0010.64,0006.37,0005.97
2023-11-01 11:23:00,SystemResetWarning,0833.0,4.99,000.00,021.6,020.4,000.0,030.0,022.9,12.3,0001.7,0010.96,0006.57,0006.12
2023-11-01 11:24:00,SystemResetWarning,0832.9,5.00,000.00,021.6,020.4,000.0,030.0,022.9,12.8,0001.6,0011.01,0006.59,0006.13
2023-11-01 11:25:00,SystemResetWarning,0832.9,5.00,000.00,021.6,020.4,000.0,030.0,022.9,13.1,0003.1,0011.00,0006.57,0006.11
2023-11-01 11:26:00,SystemResetWarning,0832.9,5.00,000.00,021.5,020.4,000.0,030.0,022.9,13.1,0003.2,0011.21,0006.57,0006.10
2023-11-01 11:27:00,SystemResetWarning,0833.0,5.01,000.00,021.5,020.4,000.0,030.0,022.8,12.1,0003.8,0010.81,0006.54,0006.04
2023-11-01 11:28:00,SystemResetWarning,0833.0,5.00,000.00,021.5,020.4,000.0,030.0,022.9,11.7,0004.1,0010.55,0006.55,0006.04
2023-11-01 11:29:00,SystemResetWarning,0833.2,5.00,000.00,021.5,020.4,000.0,030.0,022.9,11.6,0004.0,0010.51,0006.53,0006.03
2023-11-01 11:30:00,SystemResetWarning,0832.8,5.00,000.00,021.5,020.3,000.0,030.0,022.9,11.6,0003.6,0010.39,0006.42,0005.92
2023-11-01 11:31:00,SystemResetWarning,0832.8,5.00,000.00,021.5,020.3,000.0,030.0,022.8,11.5,0004.5,0010.09,0006.20,0005.71
2023-11-01 11:32:00,SystemResetWarning,0832.8,5.00,000.00,021.5,020.3,000.0,030.0,022.8,11.5,0004.6,0009.73,0006.10,0005.62
2023-11-01 11:33:00,SystemResetWarning,0832.8,4.99,000.00,021.5,020.3,000.0,030.0,022.8,11.5,0004.4,0009.33,0005.99,0005.55
2023-11-01 11:34:00,SystemResetWarning,0832.9,4.99,000.00,021.5,020.3,000.0,030.0,022.8,11.6,0004.8,0009.15,0005.91,0005.51
2023-11-01 11:35:00,SystemResetWarning,0833.3,5.00,000.00,021.5,020.3,000.0,030.0,022.8,11.6,0005.3,0009.12,0005.86,0005.45
2023-11-01 11:36:00,SystemResetWarning,0833.1,5.02,000.00,021.4,020.2,000.0,030.0,022.8,11.7,0001.4,0009.08,0005.80,0005.39
2023-11-01 11:37:00,SystemResetWarning,0833.2,5.01,000.00,021.4,020.2,000.0,030.0,022.7,11.5,0004.0,0008.82,0005.70,0005.26
2023-11-01 11:38:00,SystemResetWarning,0833.1,4.99,000.00,021.4,020.3,000.0,029.9,022.7,11.3,0001.9,0008.63,0005.63,0005.22
2023-11-01 11:39:00,SystemResetWarning,0833.1,4.99,000.00,021.4,020.3,000.0,029.9,022.7,11.2,0000.0,0008.40,0005.51,0005.12
2023-11-01 11:40:00,SystemResetWarning,0832.8,5.00,000.00,021.4,020.3,000.0,029.9,022.8,11.1,0000.0,0008.26,0005.43,0005.04
2023-11-01 11:41:00,SystemResetWarning,0832.8,5.00,000.00,021.4,020.4,000.0,029.9,022.8,11.1,0000.0,0008.13,0005.33,0004.93
2023-11-01 11:42:00,SystemResetWarning,0832.8,5.00,000.00,021.4,020.4,000.0,029.9,022.8,11.1,0000.0,0007.89,0005.18,0004.80
2023-11-01 11:43:00,SystemResetWarning,0832.8,5.00,000.00,021.4,020.4,000.0,029.9,022.8,11.1,0000.0,0007.51,0004.91,0004.56
2023-11-01 11:44:00,SystemResetWarning,0832.8,5.00,000.00,021.4,020.4,000.0,029.9,022.8,11.1,0000.0,0007.02,0004.61,0004.29
2023-11-01 11:45:00,SystemResetWarning,0832.8,5.00,000.00,021.4,020.4,000.0,029.9,022.8,11.1,0000.0,0007.00,0004.29,0003.99
2023-11-01 11:46:00,SystemResetWarning,0832.8,5.00,000.00,021.4,020.4,000.0,029.9,022.9,11.0,0000.0,0007.08,0004.04,0003.75
2023-11-01 11:47:00,SystemResetWarning,0832.8,5.00,000.00,021.5,020.5,000.0,029.9,022.9,11.0,0000.0,0006.45,0003.75,0003.50
2023-11-01 11:48:00,SystemResetWarning,0833.2,5.00,000.00,021.5,020.5,000.0,029.9,022.9,11.0,0000.0,0005.89,0003.51,0003.30
2023-11-01 11:49:00,SystemResetWarning,0832.9,5.00,000.00,021.5,020.5,000.0,029.9,022.9,11.0,0000.0,0005.39,0003.26,0003.05
2023-11-01 11:50:00,SystemResetWarning,0833.1,5.00,000.00,021.5,020.5,000.0,029.9,022.9,11.1,0000.0,0005.21,0003.04,0002.74
2023-11-01 11:51:00,SystemResetWarning,0833.1,5.01,000.00,021.5,020.5,000.0,029.9,022.8,12.0,0000.0,0005.62,0002.72,0002.43
2023-11-01 11:52:00,SystemResetWarning,0832.8,5.00,000.00,021.5,020.5,000.0,029.9,022.8,11.6,0000.0,0005.30,0002.49,0002.22
2023-11-01 11:53:00,SystemResetWarning,0832.8,5.00,000.00,021.5,020.4,000.0,029.9,022.8,11.4,0000.0,0005.29,0002.46,0002.19
2023-11-01 11:54:00,SystemResetWarning,0832.8,5.01,000.00,021.5,020.4,000.0,029.9,022.8,11.5,0000.0,0005.30,0002.46,0002.19
2023-11-01 11:55:00,SystemResetWarning,0832.8,5.00,000.00,021.5,020.4,000.0,029.9,022.8,11.6,0000.0,0005.29,0002.45,0002.18
2023-11-01 11:56:00,SystemResetWarning,0832.9,4.99,000.00,021.5,020.5,000.0,029.9,022.9,12.7,0000.0,0004.79,0002.42,0002.17
2023-11-01 11:57:00,SystemResetWarning,0833.0,5.00,000.00,021.5,020.5,000.0,029.9,022.9,12.2,0000.0,0003.80,0002.34,0002.12
2023-11-01 11:58:00,SystemResetWarning,0833.1,5.00,000.00,021.5,020.5,000.0,029.9,022.9,11.8,0000.0,0003.75,0002.29,0002.08
2023-11-01 11:59:00,SystemResetWarning,0832.9,5.00,000.00,021.5,020.5,000.0,029.9,022.9,11.5,0000.0,0003.77,0002.28,0002.05
